Location: Central Falls
(41.8900°N, 71.3929°W)
Time: 04:42:15
(UTC+00:00)

Vanguard 2 Rocket - Pass Details

Date: 08 December 2023
Orbit: 555 x 3309 km, 32.9° (Epoch: 01 March)

Event Time Altitude Azimuth Distance (km) Brightness Sun altitude
Rises 16:30:15 0° 209° (SSW) 5,209 11.7 25.4°
Reaches altitude 10° 16:33:43 10° 199° (SSW) 4,574 11.9 25.4°
Maximum altitude 16:45:27 34° 141° (SE) 3,936 11.2 25.3°
Drops below altitude 10° 17:01:22 10° 87° (E) 6,233 11.1 25.1°
Sets 17:07:05 0° 80° (E) 7,297 11.3 25.0°
